TimeEST,TemperatureF,Dew PointF,Humidity,Sea Level PressureIn,VisibilityMPH,Wind Direction,Wind SpeedMPH,Gust SpeedMPH,PrecipitationIn,Events,Conditions,WindDirDegrees,DateUTC
12:51 AM,30.0,23.0,75,29.98,9.0,Calm,Calm,-,N/A,,Mostly Cloudy,0,2012-12-24 05:51:00
1:51 AM,28.9,23.0,78,29.98,8.0,NE,3.5,-,N/A,,Mostly Cloudy,40,2012-12-24 06:51:00
2:51 AM,28.0,21.9,78,29.99,9.0,East,5.8,-,N/A,,Partly Cloudy,100,2012-12-24 07:51:00
3:51 AM,30.0,23.0,75,29.98,9.0,ESE,6.9,-,N/A,,Overcast,110,2012-12-24 08:51:00
4:51 AM,30.0,24.1,79,29.93,10.0,East,8.1,-,N/A,,Overcast,90,2012-12-24 09:51:00
5:51 AM,30.0,24.1,79,29.91,10.0,East,6.9,-,N/A,,Overcast,90,2012-12-24 10:51:00
6:51 AM,30.0,24.1,79,29.91,10.0,ESE,5.8,-,N/A,,Overcast,120,2012-12-24 11:51:00
7:51 AM,28.0,24.1,85,29.90,9.0,East,4.6,-,N/A,,Overcast,90,2012-12-24 12:51:00
8:51 AM,32.0,25.0,75,29.88,10.0,East,8.1,-,N/A,,Mostly Cloudy,90,2012-12-24 13:51:00
9:51 AM,33.1,26.1,75,29.87,7.0,ESE,4.6,-,N/A,,Overcast,110,2012-12-24 14:51:00
10:51 AM,35.1,27.0,72,29.86,7.0,ESE,5.8,-,N/A,,Overcast,110,2012-12-24 15:51:00
10:58 AM,35.6,28.4,75,29.83,10.0,ESE,5.8,-,N/A,,Overcast,120,2012-12-24 15:58:00
11:51 AM,35.1,28.9,78,29.83,6.0,East,3.5,-,0.00,Rain,Light Rain,90,2012-12-24 16:51:00
11:58 AM,35.6,28.4,75,29.81,4.0,East,4.6,-,0.01,Rain,Rain,80,2012-12-24 16:58:00
12:27 PM,35.6,30.2,81,29.78,4.0,East,4.6,-,0.04,Rain,Light Rain,80,2012-12-24 17:27:00
12:51 PM,35.1,32.0,89,29.80,3.0,East,3.5,-,0.05,Rain,Light Rain,80,2012-12-24 17:51:00
1:10 PM,35.6,32.0,87,29.76,2.5,East,4.6,-,0.00,Rain,Light Rain,100,2012-12-24 18:10:00
1:23 PM,35.6,33.8,93,29.77,1.5,Calm,Calm,-,0.01,Rain,Light Rain,0,2012-12-24 18:23:00
1:38 PM,35.6,33.8,93,29.76,2.5,Calm,Calm,-,0.01,Rain,Light Rain,0,2012-12-24 18:38:00
1:51 PM,35.1,33.1,92,29.78,2.5,Calm,Calm,-,0.02,,Overcast,0,2012-12-24 18:51:00
2:00 PM,35.6,33.8,93,29.76,1.2,Calm,Calm,-,0.00,Rain,Light Rain,0,2012-12-24 19:00:00
2:22 PM,35.6,33.8,93,29.77,1.5,Calm,Calm,-,0.00,,Overcast,0,2012-12-24 19:22:00
2:29 PM,35.6,33.8,93,29.77,2.0,Calm,Calm,-,0.00,,Overcast,0,2012-12-24 19:29:00
2:37 PM,35.6,33.8,93,29.76,1.2,Calm,Calm,-,0.00,Rain,Light Rain,0,2012-12-24 19:37:00
2:44 PM,35.6,33.8,93,29.76,1.2,Calm,Calm,-,0.01,Rain,Light Rain,0,2012-12-24 19:44:00
2:51 PM,35.1,34.0,96,29.78,1.2,Calm,Calm,-,0.01,Rain,Light Rain,0,2012-12-24 19:51:00
3:39 PM,35.6,33.8,93,29.77,1.2,East,3.5,-,0.00,,Overcast,100,2012-12-24 20:39:00
3:51 PM,35.1,33.1,92,29.79,1.2,East,3.5,-,0.00,,Overcast,80,2012-12-24 20:51:00
4:06 PM,35.6,33.8,93,29.77,2.0,Calm,Calm,-,N/A,,Overcast,0,2012-12-24 21:06:00
4:51 PM,35.1,34.0,96,29.81,1.0,Calm,Calm,-,N/A,,Overcast,0,2012-12-24 21:51:00
5:04 PM,35.6,33.8,93,29.79,1.2,Calm,Calm,-,N/A,,Overcast,0,2012-12-24 22:04:00
5:32 PM,35.6,33.8,93,29.79,0.8,Calm,Calm,-,N/A,,Overcast,0,2012-12-24 22:32:00
5:51 PM,35.1,34.0,96,29.82,0.5,Calm,Calm,-,N/A,Fog,Fog,0,2012-12-24 22:51:00
6:33 PM,35.6,35.6,100,29.81,0.5,Calm,Calm,-,N/A,Fog,Fog,0,2012-12-24 23:33:00
6:51 PM,35.1,35.1,100,29.84,0.5,Calm,Calm,-,N/A,Fog,Fog,0,2012-12-24 23:51:00
7:01 PM,35.6,33.8,93,29.82,0.5,ESE,4.6,-,N/A,Fog,Fog,120,2012-12-25 00:01:00
7:51 PM,35.1,35.1,100,29.87,0.5,SSW,4.6,-,N/A,Fog,Fog,210,2012-12-25 00:51:00
8:34 PM,35.6,35.6,100,29.86,0.5,West,5.8,-,N/A,,Mist,260,2012-12-25 01:34:00
8:51 PM,35.6,35.6,100,29.87,0.8,West,5.8,-,N/A,,Overcast,260,2012-12-25 01:51:00
9:01 PM,35.6,35.6,100,29.88,1.5,West,6.9,-,N/A,,Overcast,260,2012-12-25 02:01:00
9:30 PM,35.6,33.8,93,29.89,2.0,WNW,8.1,-,N/A,,Overcast,290,2012-12-25 02:30:00
9:51 PM,35.1,34.0,96,29.92,3.0,West,6.9,-,N/A,,Overcast,280,2012-12-25 02:51:00
10:01 PM,35.6,33.8,93,29.90,3.0,West,10.4,-,N/A,,Overcast,280,2012-12-25 03:01:00
10:41 PM,33.8,33.8,100,29.93,2.5,West,15.0,-,N/A,,Overcast,270,2012-12-25 03:41:00
10:51 PM,33.8,33.8,100,29.93,2.5,West,13.8,-,N/A,,Overcast,280,2012-12-25 03:51:00
11:02 PM,33.8,32.0,93,29.94,3.0,WNW,12.7,20.7,N/A,,Overcast,290,2012-12-25 04:02:00
11:51 PM,34.0,32.0,92,29.98,3.0,WNW,8.1,-,N/A,,Overcast,290,2012-12-25 04:51:00